Tiempo cada hora Dag

Hoy, 4 Agosto, Miércoles

Tiempo Temperatura Precipitaciones Viento Presión Humedad
00:00 +13°C° 0 mm 0 mps 752 mmHg 83%
01:00 +13°C° 0 mm 0 mps 752 mmHg 83%
02:00 +13°C° 0 mm 0 mps 752 mmHg 84%
03:00 +12°C° 0 mm 0 mps 752 mmHg 85%
04:00 +12°C° 0 mm 0 mps 752 mmHg 85%
05:00 +13°C° 0 mm 0 mps 752 mmHg 81%
06:00 +15°C° 0 mm 0 mps 752 mmHg 77%
07:00 +18°C° 0 mm 1 mps 752 mmHg 73%
08:00 +18°C° 0.1 mm 1 mps 752 mmHg 73%
09:00 +18°C° 0.1 mm 1 mps 753 mmHg 74%
10:00 +18°C° 0.1 mm 2 mps 753 mmHg 74%
11:00 +18°C° 0.2 mm 1 mps 753 mmHg 77%
12:00 +18°C° 0.2 mm 1 mps 752 mmHg 80%
13:00 +16°C° 0.2 mm 1 mps 752 mmHg 83%
14:00 +16°C° 0.1 mm 1 mps 752 mmHg 83%
15:00 +18°C° 0.1 mm 1 mps 752 mmHg 82%
16:00 +18°C° 0.1 mm 1 mps 752 mmHg 82%
17:00 +16°C° 0 mm 1 mps 752 mmHg 83%
18:00 +16°C° 0 mm 1 mps 752 mmHg 83%
19:00 +16°C° 0 mm 1 mps 752 mmHg 84%
20:00 +16°C° 0 mm 1 mps 752 mmHg 85%
21:00 +15°C° 0 mm 1 mps 752 mmHg 86%
22:00 +14°C° 0 mm 0 mps 752 mmHg 86%
23:00 +14°C° 0 mm 0 mps 752 mmHg 86%

Mañana, 5 Agosto, Jueves

Tiempo Temperatura Precipitaciones Viento Presión Humedad
00:00 +14°C° 0 mm 0 mps 752 mmHg 86%
01:00 +14°C° 0 mm 0 mps 752 mmHg 86%
02:00 +13°C° 0 mm 0 mps 752 mmHg 87%
03:00 +14°C° 0 mm 1 mps 752 mmHg 88%
04:00 +14°C° 0 mm 1 mps 752 mmHg 89%
05:00 +15°C° 0 mm 1 mps 752 mmHg 86%
06:00 +16°C° 0 mm 1 mps 752 mmHg 83%
07:00 +18°C° 0 mm 1 mps 752 mmHg 80%
08:00 +18°C° 0 mm 2 mps 752 mmHg 74%
09:00 +19°C° 0 mm 2 mps 751 mmHg 68%
10:00 +20°C° 0 mm 2 mps 751 mmHg 63%
11:00 +21°C° 0 mm 2 mps 751 mmHg 58%
12:00 +22°C° 0 mm 3 mps 751 mmHg 54%
13:00 +24°C° 0 mm 3 mps 750 mmHg 49%
14:00 +24°C° 0 mm 3 mps 750 mmHg 52%
15:00 +23°C° 0 mm 2 mps 750 mmHg 56%
16:00 +23°C° 0 mm 2 mps 750 mmHg 59%
17:00 +21°C° 0 mm 2 mps 750 mmHg 62%
18:00 +20°C° 0 mm 2 mps 749 mmHg 66%
19:00 +19°C° 0 mm 2 mps 749 mmHg 69%
20:00 +18°C° 0 mm 2 mps 749 mmHg 71%
21:00 +17°C° 0 mm 3 mps 749 mmHg 74%
22:00 +16°C° 0 mm 3 mps 749 mmHg 76%
23:00 +16°C° 0 mm 3 mps 748 mmHg 81%

Pasado mañana, 6 Agosto, Viernes

Tiempo Temperatura Precipitaciones Viento Presión Humedad
00:00 +14°C° 0 mm 3 mps 748 mmHg 85%
01:00 +14°C° 0 mm 3 mps 748 mmHg 90%
02:00 +14°C° 0 mm 3 mps 748 mmHg 87%
03:00 +14°C° 0 mm 3 mps 748 mmHg 84%
04:00 +15°C° 0 mm 4 mps 747 mmHg 81%
05:00 +15°C° 0 mm 4 mps 747 mmHg 80%
06:00 +15°C° 0 mm 4 mps 747 mmHg 79%
07:00 +15°C° 0 mm 4 mps 747 mmHg 78%
08:00 +17°C° 0 mm 4 mps 747 mmHg 76%
09:00 +17°C° 0 mm 4 mps 747 mmHg 74%
10:00 +16°C° 0 mm 5 mps 747 mmHg 72%
11:00 +18°C° 0.1 mm 4 mps 747 mmHg 74%
12:00 +18°C° 0.1 mm 3 mps 747 mmHg 76%
13:00 +18°C° 0.1 mm 3 mps 747 mmHg 78%
14:00 +17°C° 0.2 mm 2 mps 747 mmHg 80%
15:00 +17°C° 0.2 mm 2 mps 747 mmHg 83%
16:00 +18°C° 0.2 mm 1 mps 747 mmHg 85%
17:00 +18°C° 0.3 mm 1 mps 747 mmHg 87%
18:00 +16°C° 0.3 mm 1 mps 747 mmHg 90%
19:00 +16°C° 0.3 mm 2 mps 747 mmHg 92%
20:00 +16°C° 0 mm 2 mps 747 mmHg 92%
21:00 +16°C° 0 mm 2 mps 747 mmHg 92%
22:00 +16°C° 0 mm 2 mps 747 mmHg 91%
23:00 +15°C° 0 mm 2 mps 747 mmHg 91%

7 Agosto, Sábado

Tiempo Temperatura Precipitaciones Viento Presión Humedad
00:00 +15°C° 0 mm 2 mps 747 mmHg 90%
01:00 +15°C° 0 mm 2 mps 747 mmHg 89%
02:00 +15°C° 0 mm 2 mps 747 mmHg 89%
03:00 +15°C° 0 mm 2 mps 747 mmHg 89%
04:00 +15°C° 0 mm 2 mps 747 mmHg 88%
05:00 +16°C° 0 mm 3 mps 747 mmHg 84%
06:00 +17°C° 0 mm 3 mps 747 mmHg 80%
07:00 +18°C° 0 mm 3 mps 748 mmHg 77%
08:00 +19°C° 0 mm 3 mps 748 mmHg 67%
09:00 +21°C° 0 mm 3 mps 748 mmHg 57%
10:00 +24°C° 0 mm 3 mps 748 mmHg 48%
11:00 +25°C° 0 mm 3 mps 748 mmHg 44%
12:00 +25°C° 0 mm 3 mps 748 mmHg 41%
13:00 +26°C° 0 mm 3 mps 748 mmHg 37%
14:00 +26°C° 0 mm 4 mps 748 mmHg 40%
15:00 +26°C° 0 mm 4 mps 748 mmHg 42%
16:00 +26°C° 0 mm 4 mps 748 mmHg 44%
17:00 +25°C° 0 mm 3 mps 748 mmHg 50%
18:00 +22°C° 0 mm 3 mps 748 mmHg 57%
19:00 +21°C° 0 mm 2 mps 748 mmHg 64%
20:00 +20°C° 0 mm 3 mps 749 mmHg 66%
21:00 +20°C° 0 mm 3 mps 749 mmHg 69%
22:00 +19°C° 0 mm 3 mps 749 mmHg 71%
23:00 +19°C° 0 mm 3 mps 749 mmHg 72%

8 Agosto, Domingo

Tiempo Temperatura Precipitaciones Viento Presión Humedad
00:00 +18°C° 0 mm 3 mps 749 mmHg 73%
01:00 +18°C° 0 mm 3 mps 749 mmHg 74%
02:00 +18°C° 0 mm 3 mps 748 mmHg 75%
03:00 +18°C° 0 mm 2 mps 748 mmHg 76%
04:00 +18°C° 0 mm 2 mps 748 mmHg 77%
05:00 +18°C° 0.6 mm 2 mps 748 mmHg 82%
06:00 +19°C° 0.6 mm 1 mps 749 mmHg 87%
07:00 +18°C° 0.6 mm 1 mps 749 mmHg 92%
08:00 +18°C° 0.5 mm 2 mps 749 mmHg 91%
09:00 +18°C° 0.5 mm 2 mps 749 mmHg 90%
10:00 +19°C° 0.5 mm 3 mps 750 mmHg 89%
11:00 +21°C° 0 mm 3 mps 750 mmHg 80%
12:00 +22°C° 0 mm 4 mps 750 mmHg 71%
13:00 +25°C° 0 mm 4 mps 751 mmHg 62%
14:00 +25°C° 0.1 mm 4 mps 751 mmHg 61%
15:00 +25°C° 0.1 mm 3 mps 751 mmHg 60%
16:00 +25°C° 0.1 mm 2 mps 752 mmHg 59%
17:00 +24°C° 0 mm 2 mps 752 mmHg 62%
18:00 +23°C° 0 mm 2 mps 752 mmHg 65%
19:00 +21°C° 0 mm 2 mps 752 mmHg 68%
20:00 +20°C° 0 mm 2 mps 753 mmHg 70%
21:00 +19°C° 0 mm 2 mps 753 mmHg 73%
22:00 +18°C° 0 mm 2 mps 754 mmHg 76%
23:00 +19°C° 0 mm 1 mps 754 mmHg 77%

9 Agosto, Lunes

Tiempo Temperatura Precipitaciones Viento Presión Humedad
00:00 +19°C° 0 mm 1 mps 754 mmHg 78%
01:00 +19°C° 0 mm 1 mps 754 mmHg 79%
02:00 +18°C° 0 mm 1 mps 754 mmHg 79%
03:00 +17°C° 0 mm 2 mps 754 mmHg 79%
04:00 +16°C° 0 mm 2 mps 754 mmHg 79%
05:00 +17°C° 0 mm 2 mps 755 mmHg 73%
06:00 +19°C° 0 mm 2 mps 755 mmHg 68%
07:00 +20°C° 0 mm 2 mps 755 mmHg 63%
08:00 +22°C° 0 mm 3 mps 755 mmHg 58%
09:00 +24°C° 0 mm 3 mps 756 mmHg 52%
10:00 +26°C° 0 mm 3 mps 756 mmHg 47%
11:00 +26°C° 0 mm 3 mps 756 mmHg 45%
12:00 +27°C° 0 mm 3 mps 755 mmHg 43%
13:00 +27°C° 0 mm 4 mps 755 mmHg 41%
14:00 +27°C° 0 mm 3 mps 755 mmHg 43%
15:00 +26°C° 0 mm 2 mps 755 mmHg 45%
16:00 +26°C° 0 mm 2 mps 755 mmHg 48%
17:00 +24°C° 0 mm 1 mps 755 mmHg 51%
18:00 +23°C° 0 mm 1 mps 755 mmHg 55%
19:00 +22°C° 0 mm 1 mps 755 mmHg 58%
20:00 +22°C° 0 mm 1 mps 755 mmHg 59%
21:00 +21°C° 0 mm 1 mps 755 mmHg 59%
22:00 +20°C° 0 mm 1 mps 755 mmHg 60%
23:00 +19°C° 0 mm 2 mps 755 mmHg 61%
Mostrar más

Necesitamos Su Consentimiento

Meteoprog y nuestros Proveedores de Servicios pueden almacenar y acceder a sus datos personales como cookies, identificadores de dispositivo u otras tecnologías similares de su dispositivo y procesar dichos datos para personalizar contenido y anuncios, además de ofrecer funciones de redes sociales y analizar el tráfico.

  • Almacenar y/o acceder a información en su dispositivo

    Se puede almacenar o acceder a cookies, identificadores de dispositivo u otra información de su dispositivo para los fines anteriormente indicados.

  • Anuncios y contenido personalizados, medición de anuncios y contenido, percepciones del público, y desarrollo de productos

    Los anuncios y el contenido pueden personalizarse en base a su perfil. Se pueden añadir más datos para personalizar mejor los anuncios y contenidos. Se puede medir el rendimiento de los anuncios y contenidos. Se puede obtener la percepción sobre el público que ha visto los anuncios y contenidos. Dichos datos pueden usarse para desarrollar o mejorar la experiencia del usuario, sistemas y software.

Al hacer clic en ‘Estoy De Acuerdo’ usted permitirá el uso de las cookies, identificadores de dispositivo, balizas web u otras tecnologías similares indicadas. Su configuración puede cambiarse desde el navegador de su dispositivo.

Para ciertos fines, los intereses legítimos pueden ser considerados por encima del consentimiento. Puede leer más sobre ello en nuestra Política de Privacidad y Cookies.